CST,Max TemperatureF,Mean TemperatureF,Min TemperatureF,Max Dew PointF,MeanDew PointF,Min DewpointF,Max Humidity, Mean Humidity, Min Humidity, Max Sea Level PressureIn, Mean Sea Level PressureIn, Min Sea Level PressureIn, Max VisibilityMiles, Mean VisibilityMiles, Min VisibilityMiles, Max Wind SpeedMPH, Mean Wind SpeedMPH, Max Gust SpeedMPH,PrecipitationIn, CloudCover, Events, WindDirDegrees
2013-2-1,5,-4,-13,1,-9,-18,92,70,51,30.30,30.21,30.08,10,8,1,9,4,,0.00,2,Snow,249
2013-2-2,14,7,0,3,1,-4,92,77,53,30.14,30.07,29.98,10,8,2,7,1,,0.00,4,Snow,303
2013-2-3,17,11,5,12,6,3,93,76,58,30.04,29.99,29.93,10,7,1,13,3,22,0.00,4,Snow,279
2013-2-4,19,10,1,10,5,-2,92,70,42,30.01,29.96,29.89,10,9,2,8,3,,0.00,2,Snow,29
2013-2-5,30,15,0,25,14,-6,100,83,69,30.09,29.86,29.72,10,8,0,15,4,21,0.02,5,Snow,259
2013-2-6,30,10,-9,27,10,-15,100,82,69,30.16,30.09,29.99,10,9,1,12,2,,0.00,3,Snow,109
2013-2-7,32,29,26,30,28,23,100,93,86,30.18,30.03,29.98,10,5,1,12,5,,0.00,8,Snow,35
2013-2-8,28,16,1,23,12,0,100,76,51,30.38,30.32,30.19,10,10,7,10,4,,0.00,2,,16
2013-2-9,30,16,1,25,19,-2,100,86,74,30.33,30.18,30.02,10,9,5,13,5,20,0.00,6,,164
2013-2-10,41,36,30,39,32,27,100,94,86,30.01,29.59,29.29,10,7,1,13,6,18,0.15,8,Rain-Snow,126
2013-2-11,33,28,23,34,25,18,100,86,74,30.01,29.68,29.29,10,8,2,16,10,28,0.01,7,Rain-Snow,263
2013-2-12,33,24,14,21,17,14,100,77,60,30.06,29.96,29.82,10,10,7,12,6,18,0.00,3,Snow,244
2013-2-13,35,22,8,32,21,5,100,84,65,29.82,29.72,29.58,10,9,2,8,1,,0.01,1,Snow,225
2013-2-14,33,26,19,34,24,9,100,78,60,30.10,29.79,29.54,10,8,2,18,6,25,0.01,5,Rain-Snow,315
2013-2-15,21,12,3,9,4,0,92,64,49,30.24,30.19,30.10,10,10,10,16,5,21,0.00,1,,294
2013-2-16,19,8,-4,5,1,-8,92,68,46,30.22,30.18,30.15,10,10,10,8,3,,0.00,3,,306
2013-2-17,28,10,-9,19,3,-15,92,67,47,30.17,30.04,29.81,10,10,10,12,3,17,0.00,0,,141
2013-2-18,39,29,19,32,25,16,93,78,65,29.80,29.60,29.51,10,9,5,15,9,23,0.00,3,Rain-Snow,227
2013-2-19,19,12,5,16,2,-6,93,69,56,30.26,29.94,29.65,10,6,1,22,13,31,0.00,5,Snow,293
2013-2-20,23,12,0,7,1,-6,92,67,46,30.39,30.36,30.26,10,10,10,9,5,,0.00,1,,296
2013-2-21,24,10,-2,21,8,-6,93,80,63,30.44,30.30,30.05,10,10,3,21,5,28,0.00,3,Snow,80
2013-2-22,30,26,23,25,22,19,100,84,75,30.04,29.86,29.81,10,6,0,15,9,25,0.02,7,Snow,71
2013-2-23,30,24,17,21,20,18,100,80,64,29.95,29.87,29.83,10,9,5,12,5,16,0.00,7,Snow,249
2013-2-24,37,19,1,21,14,-2,100,79,48,30.11,30.06,29.96,10,10,7,5,0,,0.00,0,,157
2013-2-25,39,28,17,27,23,18,100,81,56,30.12,30.09,30.03,10,9,4,6,0,,0.00,4,Snow,157
2013-2-26,35,27,19,27,24,18,100,82,70,30.04,29.87,29.75,10,8,3,21,7,29,0.00,4,Snow,47
2013-2-27,32,31,30,32,28,23,100,88,69,29.89,29.78,29.73,10,6,2,13,9,20,0.01,7,Snow,356
2013-2-28,32,29,26,28,24,16,93,77,59,30.16,30.04,29.90,10,10,5,12,8,18,0.00,7,Snow,353